• In Moldova, Republic
  • List of Countries
  • For 7 days
  • Water Temperature
  • Satellite Maps
  • Weather Map
  • Weather Widgets
  • user-avatar
    Login

    Hourly Weather Klagenfurt

    Today, 27 April, Thursday

    Time Temperature Precipitation Wind Pressure Humidity
    00:00 +9°C° 1.9 mm 2 mps 684 mmHg 95%
    01:00 +9°C° 1.9 mm 2 mps 683 mmHg 95%
    02:00 +9°C° 2 mm 2 mps 683 mmHg 96%
    03:00 +9°C° 2 mm 2 mps 683 mmHg 96%
    04:00 +9°C° 2 mm 2 mps 683 mmHg 96%
    05:00 +9°C° 2.1 mm 2 mps 683 mmHg 96%
    06:00 +9°C° 2.1 mm 2 mps 683 mmHg 95%
    07:00 +9°C° 2.1 mm 2 mps 683 mmHg 95%
    08:00 +10°C° 1.6 mm 2 mps 684 mmHg 94%
    09:00 +10°C° 1.6 mm 2 mps 684 mmHg 93%
    10:00 +11°C° 1.6 mm 3 mps 684 mmHg 91%
    11:00 +11°C° 1.2 mm 3 mps 685 mmHg 90%
    12:00 +11°C° 1.2 mm 3 mps 685 mmHg 89%
    13:00 +12°C° 1.2 mm 3 mps 685 mmHg 88%
    14:00 +11°C° 1.3 mm 3 mps 685 mmHg 89%
    15:00 +12°C° 1.3 mm 2 mps 684 mmHg 90%
    16:00 +12°C° 1.3 mm 2 mps 684 mmHg 92%
    17:00 +10°C° 3.2 mm 2 mps 684 mmHg 93%
    18:00 +9°C° 3.2 mm 2 mps 684 mmHg 95%
    19:00 +9°C° 3.2 mm 2 mps 683 mmHg 97%
    20:00 +9°C° 4.1 mm 2 mps 683 mmHg 97%
    21:00 +8°C° 4.1 mm 2 mps 683 mmHg 97%
    22:00 +8°C° 4.1 mm 2 mps 683 mmHg 98%
    23:00 +8°C° 5.1 mm 2 mps 682 mmHg 97%

    Tomorrow, 28 April, Friday

    Time Temperature Precipitation Wind Pressure Humidity
    00:00 +8°C° 5.1 mm 3 mps 682 mmHg 97%
    01:00 +8°C° 5.1 mm 3 mps 681 mmHg 97%
    02:00 +8°C° 4.2 mm 2 mps 681 mmHg 97%
    03:00 +8°C° 4.2 mm 2 mps 681 mmHg 97%
    04:00 +8°C° 4.2 mm 2 mps 681 mmHg 97%
    05:00 +8°C° 3.2 mm 2 mps 681 mmHg 97%
    06:00 +8°C° 3.2 mm 2 mps 681 mmHg 97%
    07:00 +8°C° 3.2 mm 1 mps 681 mmHg 97%
    08:00 +8°C° 1.4 mm 2 mps 681 mmHg 95%
    09:00 +8°C° 1.4 mm 2 mps 681 mmHg 92%
    10:00 +9°C° 1.4 mm 3 mps 682 mmHg 90%
    11:00 +9°C° 0.3 mm 3 mps 682 mmHg 81%
    12:00 +10°C° 0.3 mm 3 mps 682 mmHg 72%
    13:00 +11°C° 0.3 mm 4 mps 682 mmHg 62%
    14:00 +11°C° 0.1 mm 4 mps 683 mmHg 60%
    15:00 +11°C° 0.1 mm 4 mps 683 mmHg 58%
    16:00 +10°C° 0.1 mm 3 mps 683 mmHg 57%
    17:00 +9°C° 0.2 mm 3 mps 683 mmHg 63%
    18:00 +7°C° 0.2 mm 2 mps 683 mmHg 70%
    19:00 +5°C° 0.2 mm 2 mps 683 mmHg 77%
    20:00 +5°C° 0.1 mm 1 mps 684 mmHg 80%
    21:00 +5°C° 0.1 mm 1 mps 684 mmHg 83%
    22:00 +4°C° 0.1 mm 1 mps 685 mmHg 86%
    23:00 +4°C° 0.1 mm 1 mps 685 mmHg 87%

    Day after tomorrow, 29 April, Saturday

    Time Temperature Precipitation Wind Pressure Humidity
    00:00 +4°C° 0.1 mm 1 mps 685 mmHg 89%
    01:00 +3°C° 0.1 mm 1 mps 685 mmHg 90%
    02:00 +3°C° 0 mm 1 mps 686 mmHg 90%
    03:00 +3°C° 0 mm 1 mps 686 mmHg 90%
    04:00 +2°C° 0 mm 1 mps 687 mmHg 90%
    05:00 +3°C° 0 mm 1 mps 687 mmHg 87%
    06:00 +4°C° 0 mm 1 mps 688 mmHg 83%
    07:00 +5°C° 0 mm 1 mps 688 mmHg 80%
    08:00 +7°C° 0 mm 1 mps 689 mmHg 71%
    09:00 +9°C° 0 mm 1 mps 689 mmHg 63%
    10:00 +11°C° 0 mm 1 mps 689 mmHg 54%
    11:00 +11°C° 0.1 mm 1 mps 689 mmHg 53%
    12:00 +12°C° 0.1 mm 1 mps 690 mmHg 51%
    13:00 +13°C° 0.1 mm 1 mps 690 mmHg 50%
    14:00 +13°C° 0.1 mm 1 mps 689 mmHg 52%
    15:00 +12°C° 0.1 mm 1 mps 689 mmHg 55%
    16:00 +12°C° 0.1 mm 1 mps 689 mmHg 57%
    17:00 +9°C° 0 mm 1 mps 688 mmHg 67%
    18:00 +7°C° 0 mm 1 mps 688 mmHg 77%
    19:00 +5°C° 0 mm 1 mps 688 mmHg 88%
    20:00 +4°C° 0 mm 1 mps 688 mmHg 90%
    21:00 +3°C° 0 mm 1 mps 688 mmHg 92%
    22:00 +1°C° 0 mm 0 mps 688 mmHg 94%
    23:00 +1°C° 0 mm 0 mps 688 mmHg 94%

    30 April, Sunday

    Time Temperature Precipitation Wind Pressure Humidity
    00:00 0°C° 0 mm 0 mps 688 mmHg 94%
    01:00 +1°C° 0 mm 1 mps 688 mmHg 94%
    02:00 +1°C° 0 mm 1 mps 688 mmHg 94%
    03:00 0°C° 0 mm 0 mps 688 mmHg 94%
    04:00 0°C° 0 mm 0 mps 687 mmHg 94%
    05:00 +2°C° 0 mm 0 mps 688 mmHg 88%
    06:00 +4°C° 0 mm 0 mps 689 mmHg 82%
    07:00 +7°C° 0 mm 0 mps 689 mmHg 75%
    08:00 +10°C° 0 mm 1 mps 689 mmHg 67%
    09:00 +11°C° 0 mm 1 mps 690 mmHg 59%
    10:00 +13°C° 0 mm 1 mps 690 mmHg 51%
    11:00 +14°C° 0 mm 1 mps 690 mmHg 48%
    12:00 +15°C° 0 mm 2 mps 690 mmHg 46%
    13:00 +16°C° 0 mm 2 mps 689 mmHg 44%
    14:00 +15°C° 0 mm 2 mps 689 mmHg 46%
    15:00 +15°C° 0 mm 2 mps 689 mmHg 48%
    16:00 +15°C° 0 mm 2 mps 689 mmHg 50%
    17:00 +13°C° 0 mm 2 mps 688 mmHg 62%
    18:00 +10°C° 0 mm 1 mps 688 mmHg 74%
    19:00 +8°C° 0 mm 1 mps 687 mmHg 86%
    20:00 +7°C° 0 mm 1 mps 687 mmHg 88%
    21:00 +6°C° 0 mm 1 mps 688 mmHg 90%
    22:00 +5°C° 0 mm 1 mps 688 mmHg 92%
    23:00 +4°C° 0 mm 1 mps 688 mmHg 93%

    1 May, Monday

    Time Temperature Precipitation Wind Pressure Humidity
    00:00 +4°C° 0 mm 1 mps 687 mmHg 93%
    01:00 +3°C° 0 mm 1 mps 687 mmHg 94%
    02:00 +3°C° 0 mm 1 mps 687 mmHg 94%
    03:00 +3°C° 0 mm 1 mps 687 mmHg 94%
    04:00 +3°C° 0 mm 1 mps 687 mmHg 94%
    05:00 +5°C° 0 mm 1 mps 687 mmHg 89%
    06:00 +7°C° 0 mm 1 mps 688 mmHg 84%
    07:00 +9°C° 0 mm 1 mps 688 mmHg 79%
    08:00 +11°C° 0 mm 1 mps 688 mmHg 70%
    09:00 +12°C° 0 mm 2 mps 689 mmHg 60%
    10:00 +14°C° 0 mm 2 mps 689 mmHg 51%
    11:00 +15°C° 0 mm 2 mps 689 mmHg 48%
    12:00 +16°C° 0 mm 2 mps 689 mmHg 45%
    13:00 +17°C° 0 mm 2 mps 689 mmHg 43%
    14:00 +17°C° 0 mm 2 mps 689 mmHg 45%
    15:00 +17°C° 0 mm 2 mps 688 mmHg 47%
    16:00 +17°C° 0 mm 2 mps 688 mmHg 49%
    17:00 +14°C° 0 mm 2 mps 688 mmHg 61%
    18:00 +12°C° 0 mm 1 mps 688 mmHg 74%
    19:00 +9°C° 0 mm 1 mps 687 mmHg 87%
    20:00 +8°C° 0 mm 1 mps 687 mmHg 88%
    21:00 +7°C° 0 mm 1 mps 688 mmHg 90%
    22:00 +6°C° 0 mm 1 mps 688 mmHg 91%
    23:00 +6°C° 0 mm 1 mps 688 mmHg 91%

    2 May, Tuesday

    Time Temperature Precipitation Wind Pressure Humidity
    00:00 +5°C° 0 mm 1 mps 688 mmHg 92%
    01:00 +5°C° 0 mm 1 mps 688 mmHg 92%
    02:00 +4°C° 0 mm 1 mps 688 mmHg 91%
    03:00 +3°C° 0 mm 0 mps 688 mmHg 91%
    04:00 +3°C° 0 mm 0 mps 688 mmHg 91%
    05:00 +5°C° 0 mm 0 mps 688 mmHg 85%
    06:00 +8°C° 0 mm 0 mps 689 mmHg 80%
    07:00 +10°C° 0 mm 0 mps 690 mmHg 75%
    08:00 +13°C° 0 mm 1 mps 690 mmHg 67%
    09:00 +15°C° 0 mm 1 mps 690 mmHg 60%
    10:00 +18°C° 0 mm 1 mps 691 mmHg 52%
    11:00 +19°C° 0 mm 1 mps 691 mmHg 52%
    12:00 +19°C° 0 mm 1 mps 691 mmHg 52%
    13:00 +19°C° 0 mm 2 mps 691 mmHg 51%
    14:00 +19°C° 0.1 mm 1 mps 691 mmHg 54%
    15:00 +19°C° 0.1 mm 1 mps 691 mmHg 57%
    16:00 +19°C° 0.1 mm 1 mps 691 mmHg 61%
    17:00 +15°C° 0.4 mm 1 mps 690 mmHg 71%
    18:00 +13°C° 0.4 mm 1 mps 690 mmHg 82%
    19:00 +11°C° 0.4 mm 1 mps 690 mmHg 92%
    20:00 +11°C° 0.4 mm 1 mps 690 mmHg 93%
    21:00 +10°C° 0.4 mm 1 mps 690 mmHg 94%
    22:00 +10°C° 0.4 mm 1 mps 690 mmHg 95%
    23:00 +10°C° 0.3 mm 1 mps 690 mmHg 95%
    Show more